Location: *
(51.1248°S, 108.4023°W)
Time: 03:32:29
(UTC+00:00)

Okean O Rocket - Pass Details

Date: 15 June 2021
Orbit: 623 x 643 km, 98.2° (Epoch: 31 July)

Event Time Altitude Azimuth Distance (km) Brightness Sun altitude
Rises 13:18:53 0° 5° (N) 2,950 5.3 -17.3°
Reaches altitude 10° 13:21:07 10° 1° (N) 2,051 4.4 -16.9°
Maximum altitude 13:25:32 58° 281° (WNW) 768 1.7 -16.3°
Enters shadow 13:29:20 14° 204° (SSW) 1,810 3.6 -15.7°
